sat.trackr.live / text

‹ back to catalog

STARLINK-37088

NORAD 68322 · 2026-059B

PAYLOAD ACTIVE UNKNOWN

§ Identity

Operator
Country
US
Launch date
2026-03-22
Launch site
AFETR
Launch vehicle
Mass (kg)
RCS (m²)

Purposes: comms

External: N2YO · Heavens-Above · Gunter

§ Orbital elements

Epoch: 2026-09-19T05:26:22.069248Z

Period
93.85 min
Inclination
53.1576°
Eccentricity
0.0000973
Mean motion
15.34401086 rev/d
Perigee alt
462.0 km
Apogee alt
463.4 km
Semi-major
6,840.8 km
B*
4.5156e-4
RAAN
161.7215°
Arg perigee
95.7466°
Mean anomaly
264.3648°
Rev number
2,791

§ Raw data

STARLINK-370881 68322U 26059B   26262.22664432  .00014911  00000+0  45156-3 0  99992 68322  53.1576 161.7215 0000973  95.7466 264.3648 15.34401086 27913

JSON: /api/v1/satellites/68322 · /tle

For live sub-satellite position, see the globe view (requires WebGL).

§ Visibility from observer

Set your observer location to see the next 7 days of passes ≥ 10°. The values pass through the URL so the page stays shareable.

No JS? Fill the form by hand. The geolocation button needs JavaScript.